This is the latest recevied weather packets stored in our database for station/object SA6BET-2. If no packets are shown the sender has not sent any weather packets the latest 10 day(s).
| Time | Temp. | Humidity | Pressure | Rain* | Wind** | Luminosity | Snow |
|---|---|---|---|---|---|---|---|
| 1777939473 | 18.89° C | 100% | 1014.9 hPa | - | - | - | - |
| 1777938573 | 18.33° C | 100% | 1015 hPa | - | - | - | - |
| 1777937673 | 18.33° C | 100% | 1014.9 hPa | - | - | - | - |
| 1777936773 | 18.89° C | 100% | 1014.9 hPa | - | - | - | - |
| 1777935873 | 18.89° C | 100% | 1014.9 hPa | - | - | - | - |
| 1777934972 | 18.89° C | 100% | 1014.9 hPa | - | - | - | - |
| 1777934072 | 18.33° C | 100% | 1014.8 hPa | - | - | - | - |
| 1777933172 | 18.89° C | 100% | 1014.7 hPa | - | - | - | - |
| 1777932272 | 18.89° C | 100% | 1014.7 hPa | - | - | - | - |
| 1777931372 | 18.89° C | 100% | 1014.7 hPa | - | - | - | - |
| 1777930471 | 19.44° C | 100% | 1014.7 hPa | - | - | - | - |
| 1777929571 | 18.89° C | 100% | 1014.6 hPa | - | - | - | - |
| 1777928671 | 19.44° C | 100% | 1014.5 hPa | - | - | - | - |
| 1777927771 | 20° C | 100% | 1014.5 hPa | - | - | - | - |
| 1777926871 | 19.44° C | 100% | 1014.3 hPa | - | - | - | - |
| 1777925971 | 19.44° C | 100% | 1014 hPa | - | - | - | - |
| 1777925071 | 19.44° C | 100% | 1013.8 hPa | - | - | - | - |
| 1777924170 | 20° C | 100% | 1013.6 hPa | - | - | - | - |
| 1777923270 | 20.56° C | 100% | 1013.4 hPa | - | - | - | - |
| 1777922370 | 20° C | 100% | 1013.2 hPa | - | - | - | - |
| 1777921470 | 20° C | 100% | 1013.2 hPa | - | - | - | - |
| 1777920570 | 21.11° C | 100% | 1013.1 hPa | - | - | - | - |
| 1777919669 | 21.11° C | 100% | 1013.1 hPa | - | - | - | - |
| 1777918769 | 21.67° C | 100% | 1012.9 hPa | - | - | - | - |
| 1777917869 | 22.22° C | 100% | 1013 hPa | - | - | - | - |
* Rain since midnight (hover to see other rain measurements)
** Current wind speed in m/s (hover to see current wind gust speed)